Torna al catalogo

MORELOS 3

AttivoComunicazioniGEO
NORAD 40946·PAYLOAD·🇲🇽 Mexico

Lanciato Oct 2, 2015 da Cape Canaveral Space Force Station

Loading…

TLE

AggiornatoSource: Space-Track

Epoca: Sep 14, 2026, 13:15 UTC

1 40946U 15056A   26257.55269747 -.00000050  00000-0  00000-0 0  9993
2 40946   3.2681  17.2385 0003208 185.5863 236.5862  1.00272619 40183

Traccia MORELOS 3 in tempo reale con AllMySat

Download on the App Store